Wind_Speed
41 41 41 41 41 41 40 39 39 40 42 44 45 46 47 46 43 45 47 46 44 44 44 43 42 40 39 37 35 32 28 26 24 22 19 18 16 15 12 10 8 7 6 7 6 6 6 7 10 13 15 18 20 21 22 22 23 23 23 23 24 24 25 24 24 23 22 20 19 18 17 16 16 16 16 17 17 18 18 18 18 19 19 18 18 18
41 41 42 42 43 43 42 40 40 41 41 43 45 46 47 48 46 46 48 48 47 46 46 44 43 41 40 39 37 35 32 29 28 27 24 22 19 17 15 12 11 9 8 8 7 6 5 6 7 11 13 16 18 20 21 22 22 22 22 23 23 24 25 25 25 25 24 23 21 20 19 18 17 16 16 17 17 18 18 17 17 18 18 18 18 18
41 41 42 43 44 44 44 43 42 42 41 42 44 46 47 47 48 48 48 48 48 48 47 45 45 44 42 41 39 37 35 33 32 30 27 24 22 19 17 15 13 11 10 9 9 7 6 5 6 8 12 14 16 18 20 21 21 22 22 22 22 24 25 26 26 26 25 24 23 23 22 21 19 18 17 17 17 17 17 17 17 17 17 17 18 18
41 42 43 43 44 45 45 45 45 44 43 43 44 47 47 48 49 49 48 48 48 48 48 48 47 46 44 43 41 39 39 37 34 32 30 27 25 22 19 17 15 13 11 10 9 8 7 7 6 7 10 13 15 16 18 19 20 21 22 22 21 22 24 25 26 26 26 25 25 24 23 23 22 21 19 18 18 17 17 17 16 16 16 17 18 19
42 42 43 44 44 45 46 46 47 46 44 44 45 46 48 49 50 50 49 49 49 49 50 51 50 49 47 45 43 41 41 40 38 35 32 29 29 26 21 18 17 15 13 11 10 9 8 8 8 7 8 11 13 15 17 18 18 19 21 22 21 21 23 24 25 26 26 26 25 25 25 24 24 23 21 20 19 18 18 17 16 16 16 17 17 18
42 42 43 44 44 45 45 46 47 47 46 46 46 46 47 47 49 51 51 51 51 50 51 52 52 50 48 47 46 44 42 42 40 38 34 32 32 29 24 20 19 18 16 14 13 11 10 9 9 8 8 9 12 14 15 17 17 17 20 22 22 22 22 23 24 25 26 26 26 25 25 25 25 24 23 22 20 19 19 18 18 17 17 17 18 19
41 42 43 44 44 45 45 46 47 48 48 48 47 46 46 46 48 50 51 52 52 51 51 53 53 52 50 48 48 46 43 43 42 40 37 35 34 32 27 23 21 20 19 17 16 14 12 11 10 9 9 8 10 12 14 15 15 15 17 20 22 22 22 22 23 24 25 25 25 26 25 25 25 25 25 23 22 20 20 19 19 19 18 19 19 20
40 41 43 44 44 45 45 46 47 48 49 48 48 49 47 46 47 49 50 51 52 52 53 54 54 54 53 50 49 47 45 45 43 41 39 37 35 34 31 27 24 22 21 19 18 17 16 13 11 10 10 9 9 11 13 13 14 14 14 17 20 21 22 22 23 23 24 25 25 25 25 25 26 26 26 25 24 22 21 20 20 20 20 20 21 22
39 40 42 44 44 45 46 47 48 49 49 49 50 50 48 47 48 48 49 50 51 52 53 55 55 55 53 51 49 48 47 46 43 41 40 39 38 37 35 31 27 25 24 22 20 19 18 16 13 12 11 10 10 10 11 12 12 12 12 14 16 18 20 21 22 22 23 24 25 25 25 25 26 26 26 26 26 25 23 22 22 23 23 23 24 25
38 39 41 42 44 45 46 47 48 49 50 50 50 50 50 50 50 50 50 50 51 53 54 55 56 55 53 50 48 48 49 48 45 43 42 42 42 40 39 35 31 28 27 25 23 21 20 19 16 14 12 11 11 10 10 10 10 10 11 11 13 14 16 18 20 21 22 23 24 24 24 25 25 26 26 26 26 26 26 25 25 25 25 26 26 28
35 37 39 41 43 44 45 47 48 49 50 50 51 51 52 52 52 52 52 52 52 53 54 55 56 56 54 52 49 49 51 52 50 48 47 46 45 44 42 39 35 32 30 28 26 25 23 21 18 16 14 13 12 12 11 10 9 9 9 10 11 12 13 15 17 19 20 21 23 24 24 24 24 25 26 26 26 27 27 27 27 27 27 27 28 29
31 33 35 38 40 43 44 46 47 49 50 50 52 54 54 54 54 55 56 54 53 52 53 54 55 56 55 53 52 51 53 55 54 51 49 48 47 47 45 42 38 34 33 31 29 28 26 23 20 18 17 16 14 13 13 11 9 8 8 8 9 10 11 12 14 16 18 19 21 22 23 24 24 24 24 25 26 26 27 27 28 28 28 29 29 30
28 29 32 34 37 39 41 44 45 47 49 50 53 55 55 55 56 57 58 57 55 54 53 54 55 57 55 55 56 55 54 56 55 51 49 49 50 49 46 43 41 38 35 34 33 31 29 26 23 21 19 18 16 15 15 14 11 9 8 7 8 9 10 10 12 14 15 17 19 20 21 22 23 23 23 24 25 25 26 27 27 28 28 29 30 31
26 27 29 31 33 35 38 40 43 45 48 50 53 54 54 56 57 58 59 59 58 57 56 55 55 58 58 59 61 58 55 55 54 51 50 50 52 52 48 44 44 41 38 37 35 33 31 28 26 23 22 20 19 17 16 16 14 12 10 8 7 8 9 9 10 12 13 15 16 18 20 20 21 22 22 23 23 24 25 26 27 27 28 28 29 30
25 27 28 29 31 32 34 37 40 43 46 48 52 54 54 55 58 59 60 60 59 59 59 57 57 58 60 61 62 58 56 57 56 54 52 51 52 54 51 47 46 44 41 39 38 36 34 31 29 27 24 23 22 19 18 17 16 15 13 11 9 8 8 8 9 10 11 13 14 15 17 19 19 20 21 22 22 23 23 24 25 26 27 27 28 29
26 27 28 30 31 32 33 35 37 40 43 46 50 53 54 55 58 59 61 62 62 62 62 59 58 58 59 61 61 59 60 60 58 57 56 54 53 55 54 51 49 47 45 42 40 39 36 34 32 31 28 26 25 23 20 19 18 17 16 13 11 10 9 8 8 8 10 11 12 13 14 16 17 18 19 20 21 21 22 23 23 24 25 26 26 27
26 27 29 30 32 33 34 35 36 38 40 44 48 51 52 53 56 59 62 63 64 64 63 61 60 60 60 60 61 62 64 64 61 58 59 57 54 55 55 51 51 50 48 45 43 41 39 36 35 34 32 29 28 25 23 21 20 19 18 16 14 12 11 9 8 7 8 9 11 11 12 14 15 16 17 18 19 20 20 21 22 23 23 24 25 25
26 27 29 30 32 34 35 37 38 39 40 42 46 49 51 52 55 58 61 63 65 65 64 64 64 62 61 61 64 66 65 66 65 61 59 59 56 54 54 52 52 52 50 48 46 44 42 40 38 36 35 33 30 28 26 24 24 22 21 19 17 15 13 11 10 8 8 8 9 10 11 12 13 14 15 17 17 18 18 19 19 20 21 22 23 23
26 27 29 30 31 33 35 37 40 41 42 43 44 46 49 51 54 57 59 62 64 66 66 66 67 66 64 63 66 69 67 67 70 67 62 61 58 55 54 54 54 54 52 51 49 47 46 44 42 40 38 37 34 31 29 28 27 26 24 22 20 18 16 14 12 11 9 9 9 9 10 11 12 13 14 15 16 16 16 17 17 17 18 19 20 21
26 27 28 29 30 31 33 36 39 41 43 44 45 46 48 51 54 56 58 60 63 66 67 68 69 68 66 66 67 70 70 70 73 73 69 65 63 60 57 57 56 56 55 54 52 50 49 47 46 44 42 40 37 34 33 31 30 28 26 25 23 21 20 18 15 13 12 11 10 10 10 11 11 12 13 13 14 14 15 15 15 15 15 16 17 18
25 26 27 28 29 30 31 33 37 40 42 45 47 48 50 51 53 55 57 60 63 65 68 71 71 69 68 70 69 68 71 73 74 76 74 70 68 66 62 59 59 58 57 57 55 53 51 50 49 47 45 43 41 38 36 35 33 31 29 28 26 24 23 22 20 17 15 14 13 12 11 11 12 12 12 13 13 13 12 13 13 14 13 13 14 15
25 25 26 27 28 29 30 31 34 37 40 43 46 49 51 53 54 55 57 61 63 64 68 71 72 70 71 73 72 70 72 74 75 76 76 72 68 68 67 63 61 61 59 58 57 54 53 52 51 49 48 46 44 42 40 38 37 35 33 31 29 27 26 25 23 21 19 18 16 14 13 13 13 13 13 13 13 13 12 12 11 11 12 12 12 12
24 24 25 26 27 28 29 30 32 34 36 38 42 46 50 54 56 57 58 61 63 65 68 70 71 73 75 75 74 73 73 73 75 76 77 75 69 68 71 68 64 62 61 60 59 57 55 54 53 52 51 49 47 45 43 41 40 38 35 34 32 30 28 26 24 23 21 19 18 17 16 15 14 14 14 14 14 14 13 13 12 10 10 10 10 10
25 25 26 27 27 27 28 30 31 31 32 34 36 40 45 51 56 59 60 62 63 65 67 69 70 73 76 76 75 76 75 73 74 75 77 77 73 69 71 72 68 65 63 62 61 60 57 56 56 56 55 53 50 48 46 44 42 40 38 36 34 32 29 28 26 24 22 20 19 19 18 17 16 15 14 14 14 14 14 14 13 12 11 10 9 9
26 26 27 27 28 27 28 30 30 29 30 30 32 36 40 46 52 57 61 63 64 66 67 69 70 72 76 79 77 76 75 74 74 75 76 79 78 74 71 73 72 68 65 65 64 63 61 59 59 59 58 56 54 52 49 47 45 43 41 38 36 34 31 30 29 27 24 22 22 21 20 19 18 16 15 14 14 14 13 13 13 13 13 12 10 9
27 28 28 28 29 28 28 30 30 28 28 28 30 32 36 41 47 54 59 63 65 67 69 71 71 72 76 79 79 77 76 74 73 74 76 78 80 77 71 70 72 70 68 68 68 66 65 62 61 62 63 60 57 55 52 49 47 45 43 41 39 36 34 33 32 31 29 27 25 24 22 22 20 19 17 16 14 14 13 13 13 12 12 12 12 11
30 29 29 29 30 29 28 29 28 27 27 27 27 29 32 36 42 49 56 60 64 67 70 73 74 74 74 76 78 79 77 76 75 74 75 78 80 78 73 69 70 72 70 70 70 70 69 67 66 67 66 63 59 57 54 51 50 48 46 43 41 38 36 36 35 34 34 32 30 27 25 23 22 21 21 19 17 16 15 14 13 13 12 12 12 12
32 31 31 31 31 30 29 29 28 27 26 26 26 27 28 31 36 43 51 56 62 66 69 73 76 77 76 74 76 79 79 78 77 75 75 77 80 80 75 70 70 73 73 71 71 73 72 70 70 68 66 62 59 58 56 53 52 51 48 45 43 39 37 38 38 37 37 36 33 31 28 27 26 25 23 22 20 19 17 16 15 15 14 14 14 13
34 34 33 32 32 31 30 28 28 27 26 25 25 26 26 28 31 37 44 51 57 63 68 73 77 79 79 76 73 74 78 79 78 77 76 77 80 81 79 74 71 73 75 73 72 74 74 72 71 68 64 62 60 59 58 55 53 53 51 50 48 44 40 40 41 42 41 40 37 35 33 31 30 28 25 24 23 22 21 20 18 17 17 17 16 15
35 36 35 34 34 33 30 28 28 27 26 25 25 26 26 26 27 32 37 44 51 58 65 71 76 79 81 80 74 69 73 78 79 78 78 77 78 80 80 79 73 71 76 77 73 74 76 74 72 68 65 64 62 59 59 57 55 55 55 53 52 49 45 43 45 47 47 45 42 39 37 36 34 31 29 28 27 26 25 23 21 20 21 20 20 19
35 36 36 35 35 34 31 28 28 28 27 25 25 26 26 25 25 27 32 38 45 52 60 67 72 77 81 85 82 73 71 75 75 76 78 78 79 78 78 81 78 71 74 80 77 75 76 75 74 70 67 66 63 61 60 58 57 56 56 55 54 54 53 50 49 52 52 49 44 42 41 39 37 34 33 32 31 30 29 28 27 25 25 25 24 23
35 36 36 35 35 35 32 29 28 28 27 26 26 27 26 24 24 25 27 33 40 46 54 59 65 72 79 86 88 81 76 74 72 73 74 74 78 80 79 83 82 74 75 82 81 77 75 76 75 71 67 67 65 62 61 60 58 57 57 56 56 57 58 57 54 53 53 51 47 44 44 42 39 38 37 36 35 34 33 33 31 30 28 26 25 25
34 35 36 35 35 35 32 30 29 28 27 26 26 26 25 24 24 23 24 29 35 41 48 53 59 67 74 82 87 85 82 79 77 75 69 64 72 82 83 85 87 81 79 83 84 81 77 76 77 73 69 68 67 64 62 60 59 59 59 60 61 62 62 62 60 56 55 53 50 48 47 45 42 41 40 39 39 38 37 36 34 34 32 28 24 23
34 34 35 35 35 35 33 30 29 29 27 26 26 26 25 23 23 23 23 25 30 37 44 49 55 62 68 75 82 84 82 84 86 82 70 59 64 78 84 87 90 90 86 83 84 84 80 78 78 75 70 69 68 66 64 61 60 60 62 64 67 68 67 65 64 61 59 56 53 51 50 48 45 44 43 42 42 40 39 38 37 36 35 33 28 25
32 33 34 34 34 34 32 30 30 29 28 27 26 26 24 23 23 23 23 23 26 33 39 43 46 55 64 72 78 81 82 87 92 89 77 63 61 72 83 89 92 94 91 86 85 85 82 79 80 78 74 71 69 68 66 64 63 63 65 68 70 72 71 68 67 65 63 60 56 54 53 50 48 47 45 45 44 42 41 41 39 37 37 37 34 31
31 32 33 33 34 33 32 31 30 30 28 27 27 26 23 22 23 24 23 22 24 29 35 38 38 46 60 69 74 78 83 88 93 94 86 74 67 71 83 91 93 95 94 89 88 88 85 82 81 80 78 75 72 71 70 68 67 67 69 71 73 74 73 70 69 68 66 63 60 58 56 53 51 49 48 47 46 45 45 44 43 41 39 39 38 37
30 30 31 32 33 32 32 31 30 30 29 28 27 26 23 22 23 25 24 23 24 28 35 39 41 46 57 66 70 76 82 86 92 96 93 84 75 73 83 93 94 94 94 92 90 90 89 86 84 82 81 80 78 76 74 72 71 71 72 73 75 75 74 72 70 69 67 66 63 61 59 56 54 51 50 49 48 47 47 47 45 44 43 41 40 39
29 30 31 32 32 32 32 31 31 30 30 29 28 26 24 22 23 26 25 24 25 28 33 38 42 47 57 66 71 75 80 83 87 93 97 94 84 77 83 93 94 93 95 94 92 92 92 89 87 86 85 84 82 80 78 76 74 73 74 75 76 76 74 72 71 70 69 68 66 64 61 59 56 54 52 51 50 49 50 49 46 46 47 46 44 43
30 29 30 31 32 32 32 32 32 31 30 30 29 26 24 23 24 27 27 25 24 26 32 38 40 42 50 64 72 75 79 82 82 85 92 99 96 86 85 92 96 96 96 95 95 95 95 92 89 89 88 86 84 83 82 80 77 75 75 76 78 78 75 73 72 71 70 69 68 66 63 61 59 57 55 54 53 53 54 53 49 47 48 49 49 48
30 29 30 31 31 31 32 32 32 32 31 31 30 27 25 24 26 27 27 25 24 25 30 39 43 42 46 59 71 74 78 82 82 80 86 98 102 95 89 91 97 99 97 96 96 97 99 97 92 91 92 90 86 85 85 84 80 77 76 77 80 81 78 75 73 72 70 69 68 67 66 64 61 59 57 57 58 58 58 57 54 51 49 50 52 51
30 29 29 31 31 30 30 31 32 32 32 31 30 28 26 25 27 28 26 24 24 25 29 37 44 46 46 52 63 72 78 83 83 82 85 94 101 100 93 91 96 100 99 98 97 97 100 102 97 94 94 94 90 87 86 87 85 81 79 78 80 82 82 80 77 74 72 70 69 69 69 68 64 61 59 59 61 63 63 60 58 58 58 56 55 54
30 29 29 30 30 29 29 30 31 32 32 32 30 28 27 26 28 29 26 23 24 25 28 34 41 47 48 50 57 69 79 84 86 87 88 92 98 102 99 94 95 99 100 100 100 98 99 102 102 99 97 96 93 89 86 88 88 86 84 81 81 82 84 84 81 78 75 73 71 71 71 71 68 64 61 60 62 67 67 60 56 61 65 62 58 57
30 29 29 29 28 27 27 29 31 32 32 32 30 29 28 28 27 27 26 25 25 25 27 32 38 45 51 52 55 65 77 86 90 91 92 92 94 100 102 99 98 101 102 101 101 101 101 101 103 102 100 98 96 92 87 86 88 90 89 87 85 85 85 85 84 82 79 77 75 74 74 74 73 70 65 61 63 70 71 62 57 63 69 66 61 60
30 29 28 27 26 26 27 29 31 32 32 31 30 29 29 28 27 26 26 27 26 26 26 30 36 44 51 55 57 61 71 83 90 93 94 93 91 94 99 101 102 104 105 103 102 104 105 104 104 102 100 99 99 95 90 87 87 89 91 92 91 90 88 87 85 83 81 80 79 78 77 77 76 75 72 69 71 75 74 68 66 70 71 67 63 64
30 29 27 26 26 26 27 29 31 31 31 31 30 30 30 29 28 27 28 27 25 26 27 29 35 44 51 58 62 63 68 78 87 91 93 93 91 91 95 100 103 105 107 106 104 105 106 107 106 104 101 100 101 99 95 91 88 87 90 92 93 92 91 89 87 85 83 82 82 81 81 80 80 79 78 78 79 79 76 74 74 74 71 68 66 66
29 28 27 26 26 26 28 29 30 30 31 31 30 30 30 30 29 29 28 27 25 25 27 30 34 41 48 56 62 66 70 77 84 87 89 90 91 91 93 98 102 106 109 109 108 106 107 108 109 108 105 102 102 102 100 97 93 89 89 91 93 94 93 91 89 86 84 84 84 84 84 84 83 83 82 82 83 83 80 78 78 76 73 70 69 68
29 28 26 26 26 27 28 29 30 30 31 31 30 30 30 30 30 30 29 28 26 25 26 30 33 38 45 52 59 65 71 76 82 85 86 87 88 90 92 96 100 105 109 111 110 108 108 108 109 111 110 108 105 104 103 102 99 95 91 90 92 94 94 93 91 89 87 85 85 86 86 86 86 86 85 85 84 84 83 82 81 79 76 74 73 72
29 28 27 25 25 26 28 29 29 29 31 31 29 29 30 30 30 30 29 28 27 26 26 29 32 36 41 47 54 61 67 72 78 84 86 85 86 87 89 93 98 103 108 111 111 110 109 108 108 110 112 113 112 109 107 105 104 101 97 93 92 94 95 95 95 93 91 89 88 88 88 88 88 89 89 88 87 86 85 85 84 83 81 79 77 76
29 28 27 25 25 27 28 28 28 29 30 30 29 29 29 29 30 30 29 28 27 27 26 26 29 33 38 43 49 55 61 66 72 79 84 87 87 86 87 89 94 100 105 110 111 110 109 108 109 109 111 113 114 114 112 110 108 106 103 99 96 95 96 97 97 96 95 93 92 92 91 91 91 91 91 92 91 90 89 88 88 87 85 84 83 81
28 28 27 26 26 27 27 28 28 29 29 29 28 28 28 29 30 30 29 28 27 26 25 25 27 30 35 39 45 51 57 62 66 72 79 85 88 89 88 88 90 94 101 107 110 110 108 108 107 108 110 112 114 116 116 114 112 111 109 105 101 98 97 97 98 99 98 97 96 96 95 95 95 94 94 94 93 93 93 92 91 90 89 88 87 87
27 27 27 27 26 27 27 27 28 28 29 28 28 27 28 29 29 29 28 28 27 25 23 23 25 28 32 37 41 46 52 58 62 67 73 79 85 89 90 90 89 91 96 103 108 110 109 108 107 106 109 111 113 115 117 117 116 114 112 110 107 104 101 100 99 100 100 100 100 99 99 99 99 98 97 97 96 95 95 95 95 94 93 92 91 91
Wind_Direction
236 236 236 237 237 237 236 232 228 225 223 223 223 223 222 219 219 218 216 215 215 215 216 216 217 218 220 219 215 215 219 220 214 210 217 222 220 221 210 190 181 166 153 150 134 110 93 85 80 77 71 67 63 60 55 52 52 56 58 59 58 58 59 60 63 67 72 76 78 78 79 81 88 98 106 109 110 109 108 110 114 117 120 122 124 125
235 235 235 236 236 237 236 234 231 228 225 224 223 222 222 221 219 219 217 216 215 215 216 216 217 217 219 219 216 215 216 217 214 210 214 218 217 220 217 200 190 183 167 161 157 142 119 105 94 86 79 73 67 63 59 54 52 55 59 60 59 58 60 61 62 66 70 74 78 81 82 83 87 94 103 110 113 115 116 116 118 120 122 124 124 125
235 235 234 234 235 236 236 234 233 230 226 225 224 222 222 221 220 220 218 217 216 215 215 215 216 217 217 219 217 214 214 216 215 212 213 215 213 216 219 210 199 193 180 168 167 162 147 133 116 100 89 81 74 69 64 57 53 55 59 61 60 59 60 61 62 65 68 72 77 81 84 86 88 91 97 105 112 116 119 121 123 123 124 125 125 126
235 234 234 234 234 235 235 235 233 231 228 226 225 223 222 221 221 220 219 218 216 215 215 215 216 216 216 218 218 215 213 216 217 215 214 215 212 211 216 217 209 200 190 178 170 167 160 152 140 119 101 91 83 75 70 64 57 57 60 62 63 61 60 62 63 65 67 70 75 79 82 85 88 91 94 98 105 111 116 119 123 125 126 127 127 127
235 234 234 234 234 234 235 235 234 233 230 228 226 225 222 221 221 220 219 218 216 215 216 216 216 216 216 216 217 215 214 215 218 218 217 216 214 210 211 216 213 204 197 188 176 169 161 155 151 138 117 102 94 85 76 70 64 60 62 64 64 63 62 62 64 65 67 68 72 76 80 83 86 89 92 95 99 103 108 112 116 120 123 125 126 127
235 235 235 235 234 234 235 235 235 235 232 230 228 227 224 223 222 221 219 219 216 214 216 217 216 216 217 216 215 216 215 215 218 220 219 218 217 214 211 214 213 206 202 195 185 175 166 157 154 149 136 115 103 96 86 77 71 66 65 66 66 65 65 65 65 66 67 68 70 73 77 81 84 86 89 92 95 99 103 107 111 114 117 121 123 126
236 235 235 235 235 235 235 235 235 235 234 231 230 228 226 224 224 223 221 220 218 215 216 216 216 216 215 215 215 215 215 215 217 219 219 218 219 217 214 216 215 209 206 202 193 186 179 167 157 155 149 135 116 106 98 86 79 74 69 69 69 67 66 67 68 68 68 69 70 72 74 78 81 85 88 90 93 96 100 105 108 111 115 118 121 124
236 235 236 236 235 235 235 235 235 235 234 232 231 229 227 225 226 225 223 222 220 217 216 216 216 216 215 215 215 213 214 215 216 217 218 218 219 218 216 218 218 211 207 207 202 197 192 181 169 164 159 151 137 119 108 98 88 83 77 73 72 70 67 67 69 70 71 71 72 73 74 77 79 82 86 89 92 95 98 103 107 110 113 116 120 124
236 236 235 236 236 236 235 235 235 234 234 232 231 230 227 225 226 226 225 224 222 220 218 217 216 216 215 216 216 214 213 213 213 216 218 218 217 217 216 218 219 214 208 207 208 206 201 194 185 178 172 163 155 140 123 111 100 92 87 81 76 72 69 68 69 70 72 74 74 75 76 77 79 82 84 87 91 94 98 102 105 108 111 115 119 124
237 236 235 235 236 236 236 236 236 235 234 232 232 231 228 226 225 225 225 223 223 222 220 218 216 216 214 215 216 215 214 212 211 213 217 218 218 218 218 217 218 215 211 208 209 211 209 202 195 189 185 177 167 159 144 128 116 104 97 92 84 77 72 70 70 70 71 74 76 77 78 79 80 83 84 86 89 92 97 100 103 106 109 113 118 124
238 237 236 235 235 235 236 236 236 236 235 233 232 230 228 227 225 225 225 223 223 223 221 219 217 215 213 212 213 215 214 213 210 211 213 216 218 219 218 218 218 216 212 209 209 212 212 208 201 194 191 187 177 170 163 149 136 123 111 104 96 87 78 73 73 72 71 73 76 79 81 82 83 84 86 88 89 91 95 100 103 106 109 113 119 125
240 239 238 236 236 235 235 235 236 236 235 233 232 230 228 226 225 226 226 223 222 222 222 221 218 216 214 212 213 215 215 213 212 212 213 215 218 218 216 217 219 218 213 210 209 211 212 210 204 199 195 191 184 176 173 168 158 146 132 119 110 102 92 82 78 76 74 74 76 78 81 84 86 87 88 90 91 92 95 99 103 107 110 114 120 126
243 241 239 238 237 236 235 234 234 235 235 234 233 231 228 226 225 225 226 224 222 221 221 221 219 216 213 212 213 214 214 213 212 211 212 214 217 215 214 217 219 218 215 211 210 211 211 210 208 204 200 195 189 182 178 178 175 169 158 143 128 117 108 98 88 83 80 77 76 78 80 83 87 89 90 93 94 95 97 100 103 107 111 116 121 128
248 245 243 240 238 236 235 234 233 233 233 233 233 232 229 227 225 225 225 225 223 221 220 219 218 217 214 213 213 212 211 211 211 210 210 213 215 212 211 215 218 218 217 212 210 211 210 208 209 208 204 200 195 189 182 182 184 183 177 168 154 138 125 116 105 95 89 84 81 80 80 81 85 90 93 95 97 99 100 102 105 108 112 116 122 128
250 249 248 245 242 239 237 235 233 232 232 232 233 233 230 228 226 225 224 225 224 222 222 219 218 218 215 214 214 212 208 208 208 209 209 211 213 212 211 213 216 218 218 214 211 211 210 208 209 210 208 205 201 195 188 186 188 190 189 183 173 161 146 134 124 113 102 94 89 86 83 82 82 87 92 96 99 102 103 105 108 110 114 118 123 129
250 249 248 248 247 244 241 239 236 233 231 230 231 232 230 228 227 225 224 224 224 223 222 220 219 219 216 215 215 213 209 208 206 206 208 210 211 212 213 214 214 215 217 216 214 212 211 209 209 211 209 208 206 200 194 191 191 193 195 191 185 178 168 157 144 133 122 111 102 96 91 87 84 84 89 95 99 103 106 109 111 113 116 120 124 129
254 251 247 246 246 245 244 243 240 236 233 230 230 231 230 228 228 226 224 222 223 223 221 220 219 219 217 215 215 214 211 209 206 203 204 207 209 210 212 213 214 214 214 215 216 214 212 210 211 211 211 210 209 204 199 196 195 196 197 197 193 188 182 174 165 154 143 132 121 112 104 97 93 88 87 90 96 102 107 111 114 116 119 123 127 130
261 258 253 247 244 243 242 242 242 240 237 233 231 230 229 228 227 227 225 223 223 223 222 220 219 218 217 215 215 215 213 211 209 205 203 204 206 208 209 211 213 214 213 214 216 216 214 213 213 213 213 212 211 207 204 202 200 198 199 201 199 195 191 185 180 174 166 155 143 132 121 113 106 99 93 90 91 96 102 109 114 119 122 125 129 133
267 265 261 254 248 245 241 240 240 240 239 237 234 231 229 227 226 227 226 225 223 222 222 221 220 219 217 216 216 215 213 212 212 210 208 206 206 207 208 209 211 213 214 214 215 216 215 214 214 214 215 214 212 209 207 207 206 202 200 202 203 201 196 193 191 188 183 176 167 154 142 131 122 113 106 99 94 93 96 102 109 117 123 127 132 136
270 268 267 262 255 250 245 242 239 237 237 237 236 234 231 229 226 226 226 226 224 222 222 222 221 220 219 218 218 216 213 213 212 212 213 212 211 210 209 208 208 212 215 216 215 215 216 216 215 214 214 214 213 212 210 210 211 207 202 202 204 204 201 198 197 197 195 190 184 175 164 152 141 131 121 113 105 99 96 98 102 110 119 128 134 138
274 271 269 267 263 257 252 247 242 238 235 235 235 234 233 231 228 225 225 225 225 223 222 222 221 220 220 219 219 218 215 215 213 213 215 216 215 215 212 209 208 210 215 217 216 214 215 217 217 216 215 214 212 212 211 211 212 211 207 204 203 204 203 202 201 202 203 200 195 189 181 171 160 150 140 131 123 115 108 103 102 105 111 120 131 140
277 274 271 269 267 263 257 251 245 240 237 235 234 233 233 233 230 227 224 224 225 224 223 223 221 220 220 220 220 218 217 216 214 214 216 216 216 216 215 212 209 210 213 217 217 216 215 217 219 219 218 216 214 213 213 213 213 212 211 208 206 204 205 206 206 205 207 206 202 197 193 186 176 166 158 150 142 135 128 122 116 112 111 114 122 134
278 276 273 271 269 266 261 254 247 242 239 238 237 235 233 232 231 229 225 223 224 224 224 223 221 221 221 220 219 219 218 217 215 215 216 216 215 215 215 213 210 209 212 216 218 217 215 216 218 220 220 219 217 215 215 215 214 213 213 212 210 207 206 209 211 210 211 211 209 205 201 197 190 181 173 166 158 152 147 142 138 133 127 123 123 127
278 277 275 273 270 267 262 256 250 244 241 240 240 240 237 235 232 230 227 225 223 224 225 224 223 222 222 221 220 219 220 218 217 217 217 216 215 215 214 213 211 211 213 216 217 217 215 215 217 219 220 220 219 217 216 217 216 215 214 214 214 212 209 211 215 215 215 216 216 213 209 206 201 193 186 180 172 166 161 158 155 153 151 147 144 141
278 277 276 274 272 268 262 257 253 248 246 245 243 242 241 239 235 231 228 226 224 222 223 224 224 223 222 222 220 219 220 219 218 218 218 217 216 215 214 213 213 213 214 216 216 216 215 215 216 218 219 219 219 218 217 218 218 217 216 216 216 216 214 214 216 217 217 219 220 218 215 213 210 204 198 193 186 181 175 172 170 168 167 166 166 166
278 277 276 275 274 271 263 257 256 254 252 250 248 247 245 242 239 235 230 227 224 222 221 221 223 223 223 223 221 219 219 219 219 219 218 218 217 216 214 213 214 213 213 215 216 215 215 215 215 217 218 217 217 218 218 217 218 219 218 217 218 218 219 218 218 219 219 219 221 220 218 217 215 212 207 202 197 194 190 187 185 184 184 184 182 181
277 276 276 275 275 273 265 258 257 258 257 255 254 253 251 246 243 238 234 229 225 222 220 219 220 221 223 224 222 220 218 218 218 218 219 219 219 216 213 212 213 212 211 214 215 215 215 215 215 217 217 216 216 217 218 218 219 220 219 218 218 220 223 223 223 223 222 220 220 220 221 221 219 217 214 208 204 202 200 198 197 197 200 201 202 201
275 275 274 273 274 274 267 259 258 260 261 262 262 260 257 253 248 242 237 232 228 223 220 218 218 219 220 222 223 221 220 219 217 217 218 219 219 217 213 211 211 211 210 212 215 216 215 216 217 218 218 218 217 218 219 219 220 221 220 219 218 218 222 226 227 227 226 224 222 220 221 222 221 220 218 214 211 208 206 206 206 207 209 210 213 215
273 272 272 271 272 273 269 261 258 260 264 267 269 269 265 259 255 248 240 235 231 227 222 218 217 217 218 220 221 220 220 220 218 217 217 219 219 218 214 211 211 211 211 211 214 216 216 216 218 219 219 219 219 219 220 220 221 221 221 221 219 216 216 221 227 230 229 227 225 222 221 222 221 220 219 218 218 216 212 212 214 218 218 216 217 218
271 270 270 270 270 272 269 262 258 260 265 269 272 273 271 266 261 253 244 236 232 228 225 221 218 216 216 218 219 218 218 219 219 217 217 219 220 219 217 214 212 212 211 210 212 217 218 217 218 219 220 220 220 220 220 221 222 223 223 223 221 219 216 216 221 226 227 226 225 224 222 222 220 220 221 221 220 218 215 212 214 223 228 224 221 221
270 268 268 268 268 270 269 263 259 260 265 270 274 276 275 271 267 258 247 239 232 228 226 224 220 217 216 217 216 216 216 216 218 218 217 219 220 220 218 216 213 212 212 210 210 215 218 219 218 218 219 220 221 220 219 219 221 224 226 226 225 223 221 218 219 222 224 224 224 224 224 223 219 219 221 222 222 220 219 215 212 216 226 230 229 228
268 267 266 266 267 268 269 265 260 260 265 270 274 277 278 277 274 265 253 242 233 227 224 223 221 218 218 217 215 214 215 214 215 216 216 218 220 219 219 217 214 213 213 210 209 212 216 219 218 216 218 220 220 221 219 218 219 222 224 225 225 224 223 222 223 223 222 223 223 223 225 225 221 221 222 224 224 223 223 224 220 216 219 227 235 241
268 266 266 265 265 266 267 266 261 260 265 270 274 278 281 281 280 274 263 247 235 226 222 221 219 218 218 217 214 213 214 214 214 213 213 216 218 218 218 217 215 215 213 210 209 209 212 217 218 216 217 219 220 221 218 215 217 220 221 222 223 224 225 225 225 223 223 223 222 222 225 225 224 223 224 225 226 226 226 229 229 225 223 225 232 245
269 267 265 264 264 264 265 266 262 260 264 270 275 279 282 285 286 282 272 255 238 228 223 220 218 218 218 217 214 211 212 213 212 210 208 211 216 217 218 217 216 216 215 211 209 208 209 214 217 216 215 217 220 220 216 212 213 217 220 221 223 225 225 225 224 223 222 223 222 222 224 225 225 224 225 226 228 228 228 231 233 232 230 229 230 237
271 268 265 263 263 263 264 265 262 260 264 269 274 279 284 288 290 287 280 263 241 229 224 220 218 218 218 216 213 210 210 211 210 208 207 208 212 216 218 217 216 216 216 214 211 209 208 211 216 216 214 215 217 217 213 210 211 215 219 222 224 225 224 224 223 222 222 222 223 223 224 225 225 225 224 226 228 230 229 231 234 234 233 231 231 235
276 269 265 263 263 263 264 264 262 261 264 269 273 279 285 290 292 291 286 269 245 228 223 221 217 216 218 218 213 209 209 210 209 208 207 207 211 216 217 216 216 216 216 215 213 211 208 209 212 215 214 214 215 215 212 211 211 215 218 222 225 226 225 224 223 222 222 222 223 223 224 224 225 225 224 225 227 230 230 230 233 234 234 233 232 234
282 273 267 264 263 263 263 262 261 260 263 268 274 279 286 291 292 291 286 272 250 229 222 221 218 215 217 218 214 209 208 210 210 208 207 207 210 215 216 216 216 215 214 214 213 211 210 209 210 213 214 214 215 215 213 212 213 215 219 222 226 227 226 226 225 223 223 223 224 224 224 225 225 225 225 226 228 231 231 231 232 234 235 235 234 234
285 277 269 265 263 262 262 261 259 259 263 268 273 279 285 289 290 289 284 276 259 236 222 220 219 216 217 218 216 209 207 208 210 210 208 208 210 214 214 214 216 215 213 214 213 211 210 209 209 211 213 213 214 215 214 213 214 217 219 222 225 227 227 227 227 226 224 223 224 225 224 225 225 225 225 226 229 232 232 231 232 236 237 236 236 235
286 279 271 266 263 262 261 260 257 257 262 267 272 277 284 286 288 287 285 280 267 245 226 220 217 215 215 218 217 212 207 207 209 210 210 209 211 214 213 212 214 214 213 213 214 212 210 209 209 210 211 212 213 214 215 214 214 217 219 222 225 226 227 228 229 229 227 225 225 225 224 224 225 226 226 227 229 232 232 230 231 236 239 239 238 237
285 280 273 267 263 261 260 259 256 255 260 266 270 275 281 284 285 286 286 284 274 254 233 223 219 215 214 216 217 214 209 208 209 209 210 210 212 215 215 212 212 214 214 213 214 214 211 210 210 210 211 211 211 213 215 215 215 216 218 222 224 226 226 227 228 229 229 228 227 227 226 224 224 226 228 229 230 232 232 231 231 235 238 239 238 238
284 279 273 267 263 261 259 257 255 255 259 264 268 273 278 282 282 284 285 283 273 257 238 227 222 218 215 215 216 214 211 210 210 210 211 212 213 215 215 213 212 213 215 214 214 214 213 212 212 211 211 211 211 212 214 215 215 216 217 220 224 226 226 227 228 228 229 229 229 229 228 226 224 225 229 231 233 233 233 232 234 236 237 237 238 239
282 278 273 268 264 262 259 255 253 255 259 263 268 272 276 279 281 285 287 283 273 259 243 231 224 220 218 217 216 214 213 212 211 211 212 214 214 214 215 215 213 213 215 215 215 214 213 213 213 212 211 211 210 211 213 215 215 216 217 218 222 225 226 227 228 229 229 230 229 229 229 228 226 226 228 232 235 235 234 234 237 240 238 236 238 241
279 276 272 268 266 263 258 252 251 255 260 264 269 272 275 278 282 287 289 285 278 268 250 237 228 222 220 219 217 215 214 213 213 213 213 214 215 215 216 216 215 214 214 216 216 215 213 213 213 213 211 211 210 210 211 214 215 216 217 219 220 224 226 227 228 229 230 230 229 228 229 229 229 227 226 227 231 234 234 232 232 237 239 237 238 241
277 274 271 267 265 262 256 251 251 255 260 265 268 270 273 277 280 282 284 283 280 272 257 241 230 223 221 219 217 216 215 215 216 215 215 216 217 217 216 216 216 215 215 215 216 216 215 213 213 213 212 211 211 211 211 212 215 216 218 220 221 223 225 227 228 229 230 230 230 229 229 229 230 229 226 224 228 233 233 230 230 235 238 239 239 240
274 272 269 266 262 259 256 253 253 257 260 264 266 269 272 276 278 280 281 282 279 271 260 247 234 226 222 220 219 218 216 216 217 218 218 218 219 219 218 216 215 215 215 215 216 216 216 215 215 215 214 212 212 212 211 211 213 216 218 220 222 224 226 226 227 227 228 229 230 230 230 229 230 231 229 226 228 233 234 232 232 235 238 239 239 239
271 268 266 263 260 258 257 255 256 258 261 264 265 268 272 275 278 282 283 284 281 272 261 250 239 230 225 222 220 219 218 217 218 219 220 220 220 222 221 219 217 216 216 216 216 217 217 217 216 216 216 215 214 213 213 212 213 214 216 220 222 224 226 227 226 226 226 228 229 231 231 231 231 231 231 229 229 232 233 233 234 235 237 238 239 239
269 264 261 260 259 258 257 258 258 259 262 264 266 269 272 275 279 283 286 287 286 277 264 253 244 234 228 224 221 220 219 219 219 220 221 221 221 222 223 222 219 217 216 216 216 217 218 218 218 217 217 217 217 217 216 215 215 215 216 218 221 224 226 227 226 225 225 226 228 229 231 232 232 232 232 232 231 231 232 234 235 235 236 237 238 239
267 262 258 257 257 258 258 258 260 260 261 264 266 269 272 276 280 285 287 289 289 283 269 256 246 238 231 227 224 221 220 220 220 221 222 222 222 222 224 223 222 219 217 216 217 218 218 219 219 219 219 219 220 221 220 219 218 218 218 218 220 223 225 227 227 226 225 225 226 228 230 231 232 233 233 233 233 233 233 234 235 236 236 237 238 239
266 260 256 254 254 257 258 259 260 261 262 265 267 269 272 277 282 285 288 292 292 286 274 259 247 239 233 229 225 223 221 221 221 221 222 222 222 223 224 225 223 221 219 218 218 219 219 219 220 221 221 221 221 223 223 223 222 222 222 221 220 222 224 226 228 228 227 225 225 227 229 230 232 233 234 235 235 235 234 234 235 237 237 238 238 239
267 259 254 252 253 256 258 259 260 261 263 266 268 270 274 280 284 286 290 295 295 289 277 263 250 240 234 230 226 224 223 222 221 221 221 221 221 223 224 225 225 223 221 219 219 219 219 220 221 222 222 222 222 223 224 225 225 225 225 225 224 223 224 225 227 229 229 228 226 226 228 230 231 232 234 235 236 235 235 235 235 236 238 239 240 240
268 259 253 251 253 256 259 259 260 262 264 266 268 271 276 281 284 287 293 297 296 290 280 267 254 243 236 231 227 225 223 223 222 221 221 220 221 222 224 225 225 225 223 222 220 220 220 220 221 222 223 223 223 223 224 225 227 227 228 228 227 226 225 226 227 228 230 230 229 227 227 229 231 232 233 234 236 236 236 235 235 236 237 238 240 242
Height
10911 10913 10915 10917 10919 10920 10923 10928 10930 10932 10935 10937 10940 10943 10948 10952 10955 10958 10961 10964 10968 10972 10974 10977 10980 10982 10985 10987 10989 10991 10993 10995 10997 10999 11000 11001 11001 11002 11002 11002 11002 11002 11003 11003 11003 11002 11002 11001 11000 10999 10997 10996 10994 10991 10989 10988 10986 10983 10981 10980 10978 10977 10975 10973 10971 10969 10967 10966 10965 10964 10964 10963 10962 10961 10960 10960 10959 10960 10960 10961 10961 10961 10962 10962 10963 10963
10906 10908 10910 10912 10914 10915 10919 10922 10924 10927 10930 10933 10935 10939 10942 10946 10950 10953 10956 10960 10964 10967 10970 10974 10977 10979 10981 10983 10986 10989 10991 10992 10994 10996 10998 10999 11000 11000 11001 11002 11001 11001 11002 11002 11003 11003 11002 11002 11001 11000 10999 10997 10995 10993 10991 10990 10988 10986 10984 10982 10981 10979 10977 10975 10973 10971 10970 10969 10967 10966 10966 10965 10964 10963 10962 10961 10961 10962 10962 10963 10963 10964 10964 10964 10965 10965
10901 10903 10905 10907 10909 10911 10914 10916 10919 10922 10925 10928 10930 10933 10937 10941 10945 10948 10952 10956 10960 10964 10967 10970 10973 10975 10977 10980 10983 10986 10988 10990 10991 10993 10995 10997 10998 10999 11000 11001 11001 11001 11001 11002 11002 11002 11002 11002 11002 11001 11000 10998 10997 10995 10993 10992 10991 10989 10986 10984 10983 10981 10980 10978 10976 10974 10973 10971 10970 10969 10968 10967 10966 10965 10965 10964 10963 10963 10964 10964 10965 10965 10966 10966 10966 10967
10896 10898 10900 10902 10904 10906 10908 10910 10913 10916 10920 10923 10925 10928 10932 10936 10939 10944 10948 10952 10956 10960 10963 10965 10967 10970 10973 10977 10980 10983 10985 10987 10988 10991 10993 10995 10997 10998 10999 11000 11000 11001 11001 11001 11002 11002 11002 11002 11002 11001 11000 10999 10998 10997 10995 10994 10993 10992 10989 10987 10985 10984 10982 10980 10978 10977 10975 10974 10973 10971 10970 10969 10968 10967 10967 10966 10966 10965 10965 10966 10966 10967 10967 10967 10968 10968
10891 10893 10895 10897 10899 10901 10903 10906 10908 10911 10915 10919 10921 10924 10927 10931 10935 10939 10943 10946 10951 10955 10957 10960 10962 10966 10970 10973 10976 10979 10982 10984 10986 10988 10990 10993 10994 10996 10997 10999 11000 11000 11001 11001 11002 11002 11002 11002 11002 11002 11001 11000 10999 10998 10997 10996 10995 10994 10992 10989 10988 10986 10985 10983 10981 10979 10978 10977 10975 10974 10972 10971 10970 10969 10968 10968 10968 10968 10967 10967 10968 10968 10968 10969 10969 10970
10886 10888 10890 10892 10895 10897 10899 10901 10903 10906 10910 10913 10916 10920 10924 10928 10930 10933 10937 10940 10945 10949 10952 10955 10959 10963 10967 10969 10972 10975 10979 10981 10983 10985 10988 10990 10992 10994 10996 10997 10998 10999 11000 11000 11001 11002 11002 11002 11002 11002 11001 11001 11000 10999 10999 10998 10997 10996 10994 10992 10990 10989 10987 10985 10984 10982 10980 10979 10978 10976 10975 10973 10972 10971 10970 10970 10969 10969 10969 10969 10969 10970 10970 10970 10971 10971
10881 10884 10885 10887 10889 10892 10894 10896 10898 10901 10904 10908 10912 10916 10920 10924 10926 10928 10932 10935 10940 10944 10947 10950 10954 10958 10962 10965 10968 10972 10976 10978 10980 10983 10986 10988 10990 10993 10995 10996 10996 10998 10999 10999 11000 11001 11001 11002 11002 11002 11002 11002 11001 11000 11000 10999 10998 10998 10997 10995 10993 10991 10990 10988 10986 10985 10983 10981 10980 10979 10977 10976 10975 10973 10972 10971 10971 10971 10971 10971 10971 10971 10972 10972 10972 10973
10876 10878 10880 10881 10884 10886 10889 10891 10893 10895 10898 10903 10907 10910 10915 10920 10921 10924 10928 10932 10936 10939 10941 10944 10948 10952 10957 10961 10964 10969 10973 10975 10977 10981 10984 10986 10989 10991 10993 10994 10995 10996 10997 10998 10999 11000 11001 11001 11001 11002 11002 11002 11002 11001 11001 11000 11000 10999 10998 10997 10995 10994 10993 10991 10989 10987 10986 10984 10983 10982 10980 10979 10977 10976 10975 10974 10973 10973 10973 10973 10973 10973 10973 10974 10974 10975
10870 10872 10874 10876 10878 10881 10883 10885 10887 10889 10892 10897 10900 10904 10910 10915 10917 10920 10924 10927 10930 10933 10935 10939 10943 10948 10954 10959 10962 10966 10970 10972 10976 10980 10982 10983 10986 10988 10989 10991 10993 10994 10995 10996 10998 10999 10999 11000 11001 11001 11002 11002 11002 11002 11002 11001 11001 11000 11000 10999 10997 10996 10995 10993 10992 10990 10989 10987 10985 10984 10983 10982 10980 10979 10978 10976 10976 10975 10975 10975 10975 10975 10975 10976 10977 10978
10865 10867 10869 10871 10873 10875 10877 10879 10881 10883 10887 10891 10895 10899 10905 10908 10912 10915 10918 10921 10924 10927 10930 10934 10939 10945 10951 10955 10959 10962 10966 10969 10973 10977 10979 10981 10983 10984 10986 10988 10990 10991 10992 10994 10996 10997 10998 10999 11000 11000 11001 11002 11002 11002 11002 11002 11002 11002 11001 11000 10999 10998 10997 10996 10994 10993 10991 10990 10988 10987 10986 10985 10984 10982 10981 10980 10979 10978 10978 10978 10978 10978 10978 10979 10980 10981
10860 10862 10864 10865 10867 10869 10871 10873 10875 10877 10881 10885 10889 10893 10897 10901 10906 10908 10910 10914 10917 10920 10925 10930 10935 10940 10945 10950 10954 10957 10960 10963 10967 10971 10973 10976 10979 10981 10982 10985 10986 10988 10990 10991 10993 10995 10996 10998 10999 11000 11000 11001 11002 11002 11002 11003 11003 11002 11002 11001 11000 10999 10999 10998 10997 10995 10994 10992 10991 10990 10988 10988 10987 10986 10984 10983 10982 10981 10981 10980 10980 10981 10981 10982 10983 10984
10855 10857 10859 10860 10862 10863 10866 10867 10869 10872 10875 10879 10882 10885 10889 10894 10899 10900 10903 10907 10911 10916 10922 10926 10931 10936 10942 10946 10949 10952 10954 10956 10961 10965 10968 10972 10975 10977 10979 10982 10984 10985 10987 10989 10990 10992 10994 10996 10998 10999 10999 11000 11001 11001 11002 11003 11003 11003 11003 11002 11001 11000 11000 11000 10999 10997 10996 10995 10994 10992 10991 10990 10989 10989 10988 10986 10985 10985 10984 10984 10984 10984 10984 10985 10986 10988
10850 10852 10853 10855 10857 10858 10860 10862 10864 10866 10869 10872 10874 10877 10882 10888 10891 10893 10896 10901 10906 10911 10915 10919 10925 10931 10937 10940 10941 10944 10947 10951 10956 10960 10964 10967 10969 10972 10976 10979 10980 10982 10984 10985 10987 10989 10991 10994 10996 10997 10998 10999 11000 11000 11001 11002 11003 11003 11003 11003 11002 11001 11001 11001 11000 10999 10998 10997 10996 10995 10994 10993 10992 10991 10991 10990 10989 10988 10988 10987 10987 10987 10988 10988 10989 10991
10846 10847 10849 10850 10852 10854 10855 10857 10858 10860 10862 10865 10867 10871 10877 10881 10884 10887 10890 10894 10899 10904 10907 10912 10917 10922 10928 10931 10933 10937 10942 10947 10951 10954 10959 10962 10964 10967 10971 10974 10976 10978 10980 10982 10984 10986 10988 10991 10993 10995 10997 10998 10999 10999 11000 11001 11002 11003 11003 11003 11003 11002 11001 11001 11001 11001 11000 10999 10998 10997 10996 10996 10995 10994 10993 10993 10992 10992 10991 10991 10991 10991 10991 10992 10992 10994
10842 10843 10844 10846 10847 10849 10850 10851 10853 10855 10857 10859 10861 10864 10870 10874 10877 10881 10884 10888 10893 10897 10900 10906 10910 10914 10921 10925 10928 10933 10937 10941 10945 10949 10952 10956 10959 10963 10966 10968 10971 10973 10976 10978 10981 10983 10986 10989 10990 10992 10994 10996 10997 10998 10999 11000 11001 11002 11002 11003 11003 11002 11002 11002 11002 11002 11002 11001 11000 10999 10998 10998 10997 10997 10996 10996 10995 10995 10994 10994 10994 10994 10994 10995 10995 10997
10838 10839 10840 10841 10842 10843 10845 10846 10848 10849 10851 10853 10855 10857 10862 10866 10870 10874 10878 10881 10885 10888 10893 10900 10904 10908 10915 10919 10923 10928 10931 10933 10938 10942 10945 10948 10953 10958 10961 10964 10966 10968 10971 10974 10977 10979 10983 10986 10988 10989 10991 10993 10995 10997 10998 10999 10999 11001 11001 11002 11002 11003 11002 11002 11002 11003 11002 11002 11002 11001 11000 10999 10999 10999 10999 10998 10998 10997 10997 10997 10997 10997 10997 10998 10998 10999
10833 10834 10835 10836 10837 10838 10840 10841 10842 10843 10846 10847 10848 10851 10856 10860 10863 10866 10870 10873 10876 10880 10887 10894 10898 10901 10906 10911 10916 10919 10922 10925 10930 10934 10938 10942 10947 10952 10956 10960 10962 10963 10966 10970 10972 10975 10979 10982 10985 10986 10988 10990 10992 10994 10996 10997 10998 10999 11000 11001 11002 11002 11002 11003 11003 11003 11003 11003 11003 11003 11002 11001 11001 11001 11001 11001 11000 11000 11000 10999 11000 11000 11000 11000 11001 11001
10828 10828 10829 10831 10832 10833 10834 10835 10836 10837 10840 10841 10843 10846 10850 10853 10855 10857 10862 10866 10870 10875 10880 10885 10889 10892 10897 10903 10907 10910 10914 10919 10922 10927 10931 10936 10941 10945 10950 10955 10957 10959 10962 10964 10967 10971 10974 10978 10981 10983 10985 10987 10989 10991 10993 10995 10996 10997 10998 11000 11001 11001 11002 11002 11003 11003 11003 11003 11004 11004 11003 11003 11003 11002 11002 11002 11002 11002 11002 11002 11002 11002 11002 11002 11003 11003
10823 10823 10823 10824 10826 10827 10828 10829 10830 10832 10834 10836 10838 10840 10843 10845 10847 10851 10855 10860 10864 10868 10873 10877 10881 10885 10890 10895 10897 10901 10907 10912 10915 10920 10925 10929 10933 10938 10943 10948 10952 10955 10957 10959 10962 10966 10969 10972 10975 10978 10981 10983 10985 10988 10990 10991 10993 10995 10996 10998 10999 11000 11001 11002 11002 11003 11003 11003 11004 11004 11004 11004 11004 11004 11004 11003 11004 11004 11004 11004 11004 11004 11004 11004 11004 11005
10818 10818 10818 10818 10819 10821 10821 10822 10823 10826 10828 10829 10832 10834 10836 10838 10841 10845 10849 10853 10856 10861 10865 10868 10872 10878 10883 10886 10889 10894 10900 10905 10909 10914 10918 10922 10927 10931 10936 10941 10946 10949 10951 10954 10957 10960 10963 10967 10969 10972 10975 10978 10981 10984 10986 10988 10990 10992 10994 10996 10997 10998 10999 11000 11001 11002 11002 11003 11003 11004 11004 11005 11005 11005 11005 11005 11005 11005 11005 11005 11006 11006 11006 11006 11006 11006
10813 10813 10813 10813 10813 10814 10815 10815 10817 10819 10821 10823 10825 10827 10829 10831 10834 10839 10842 10844 10847 10853 10857 10859 10864 10871 10875 10876 10880 10887 10893 10897 10902 10908 10911 10914 10920 10926 10931 10935 10939 10943 10945 10948 10952 10955 10959 10962 10965 10968 10971 10974 10977 10980 10982 10984 10986 10989 10991 10993 10994 10996 10997 10998 10999 11000 11001 11002 11003 11003 11004 11004 11005 11005 11005 11005 11005 11006 11006 11006 11007 11007 11007 11008 11008 11008
10808 10807 10808 10808 10807 10808 10808 10809 10810 10812 10814 10816 10817 10819 10822 10824 10827 10831 10835 10836 10840 10846 10849 10851 10858 10864 10865 10866 10872 10879 10884 10889 10895 10900 10903 10908 10916 10921 10925 10929 10933 10937 10940 10943 10947 10951 10954 10957 10960 10964 10967 10970 10973 10976 10978 10980 10982 10985 10987 10990 10992 10993 10995 10996 10997 10998 11000 11001 11002 11002 11003 11004 11004 11004 11005 11005 11005 11006 11006 11007 11007 11008 11008 11009 11009 11009
10803 10803 10802 10802 10802 10802 10802 10803 10804 10806 10807 10809 10810 10812 10814 10816 10819 10823 10827 10829 10833 10838 10841 10845 10851 10854 10854 10858 10865 10871 10875 10881 10887 10892 10897 10904 10911 10913 10917 10922 10928 10931 10934 10937 10941 10945 10949 10952 10955 10958 10962 10965 10969 10972 10975 10977 10979 10982 10984 10987 10989 10991 10993 10994 10996 10997 10999 11001 11002 11002 11003 11003 11003 11004 11004 11004 11005 11005 11006 11006 11007 11008 11009 11009 11010 11010
10798 10798 10797 10797 10797 10797 10797 10797 10798 10800 10802 10803 10804 10805 10807 10808 10810 10814 10818 10822 10826 10831 10835 10838 10843 10846 10847 10851 10858 10864 10868 10875 10881 10886 10891 10898 10902 10905 10910 10916 10921 10925 10929 10931 10935 10939 10944 10947 10949 10952 10956 10960 10964 10967 10970 10973 10976 10979 10981 10984 10987 10989 10991 10993 10995 10996 10998 11000 11001 11002 11002 11003 11003 11003 11003 11003 11004 11004 11005 11006 11007 11007 11008 11009 11010 11010
10792 10792 10792 10792 10792 10792 10792 10791 10792 10794 10796 10797 10798 10799 10800 10801 10802 10806 10809 10813 10819 10824 10828 10831 10836 10838 10838 10842 10850 10857 10862 10869 10875 10880 10885 10890 10893 10898 10904 10910 10915 10919 10923 10926 10930 10934 10938 10941 10944 10947 10950 10954 10958 10962 10966 10969 10972 10976 10979 10982 10985 10987 10990 10991 10993 10995 10996 10998 10999 11000 11001 11002 11002 11003 11003 11003 11003 11004 11004 11005 11006 11007 11007 11008 11009 11010
10787 10787 10787 10787 10786 10787 10787 10786 10787 10789 10790 10790 10792 10793 10793 10794 10795 10796 10800 10804 10809 10815 10819 10823 10827 10829 10829 10834 10842 10849 10856 10863 10870 10875 10880 10883 10886 10892 10898 10903 10908 10913 10917 10920 10924 10927 10931 10935 10938 10941 10944 10948 10953 10957 10960 10964 10968 10971 10975 10978 10982 10985 10987 10989 10990 10992 10994 10995 10996 10998 10999 11000 11001 11002 11002 11002 11003 11003 11004 11004 11005 11006 11006 11007 11008 11009
10782 10781 10781 10781 10781 10781 10782 10782 10782 10783 10784 10784 10785 10786 10786 10787 10787 10787 10790 10793 10798 10804 10810 10814 10818 10819 10822 10828 10835 10842 10849 10856 10863 10869 10873 10876 10880 10886 10892 10897 10902 10907 10911 10915 10917 10921 10924 10928 10932 10935 10938 10943 10948 10952 10956 10960 10963 10966 10970 10974 10978 10982 10985 10987 10988 10990 10991 10992 10993 10995 10997 10998 11000 11000 11000 11001 11001 11001 11002 11003 11004 11005 11006 11006 11007 11008
10776 10776 10776 10776 10776 10776 10776 10777 10778 10778 10778 10778 10779 10779 10779 10780 10779 10779 10781 10784 10788 10792 10798 10804 10808 10810 10815 10821 10827 10835 10843 10849 10856 10862 10866 10870 10874 10879 10886 10892 10897 10902 10906 10909 10911 10914 10918 10922 10926 10930 10934 10940 10944 10948 10951 10955 10958 10962 10966 10969 10973 10976 10980 10984 10986 10987 10988 10989 10991 10992 10993 10995 10996 10997 10998 10999 10999 10999 11000 11000 11001 11002 11003 11005 11006 11007
10771 10770 10770 10770 10770 10770 10771 10772 10773 10773 10773 10773 10773 10773 10773 10773 10772 10772 10773 10776 10779 10782 10786 10792 10796 10801 10807 10813 10820 10830 10837 10842 10849 10855 10859 10863 10867 10873 10881 10888 10892 10896 10900 10904 10905 10907 10912 10917 10921 10925 10931 10936 10940 10944 10947 10951 10953 10956 10960 10963 10965 10968 10972 10977 10981 10983 10984 10985 10987 10988 10990 10991 10992 10993 10995 10996 10996 10997 10997 10997 10998 11000 11001 11002 11003 11005
10765 10764 10764 10764 10765 10765 10766 10767 10767 10768 10768 10768 10768 10767 10767 10767 10766 10765 10766 10768 10770 10773 10776 10780 10785 10792 10799 10804 10812 10823 10830 10835 10841 10848 10854 10859 10862 10869 10877 10883 10888 10891 10894 10897 10899 10901 10906 10912 10916 10921 10926 10930 10934 10939 10943 10946 10948 10951 10954 10958 10961 10963 10966 10969 10973 10976 10978 10979 10982 10984 10986 10986 10988 10990 10991 10991 10991 10992 10992 10992 10993 10996 10998 10998 11000 11001
10759 10758 10758 10759 10759 10759 10760 10761 10762 10762 10762 10762 10762 10761 10761 10761 10760 10759 10759 10760 10762 10764 10767 10771 10777 10784 10790 10795 10804 10814 10820 10826 10833 10842 10851 10856 10859 10867 10873 10877 10882 10884 10885 10889 10893 10896 10901 10906 10910 10916 10921 10924 10929 10933 10937 10940 10942 10945 10949 10953 10956 10958 10960 10962 10964 10967 10970 10973 10977 10980 10981 10982 10984 10985 10986 10987 10987 10988 10988 10986 10986 10989 10993 10995 10996 10997
10753 10752 10752 10753 10753 10753 10754 10755 10756 10757 10757 10756 10756 10755 10755 10755 10754 10753 10753 10753 10754 10756 10759 10763 10769 10775 10779 10786 10796 10805 10812 10819 10826 10836 10846 10850 10853 10860 10864 10867 10870 10870 10870 10877 10885 10890 10895 10900 10904 10911 10915 10918 10922 10926 10930 10933 10936 10938 10942 10946 10949 10951 10953 10955 10957 10960 10964 10968 10972 10975 10976 10977 10979 10981 10981 10982 10983 10983 10983 10983 10983 10984 10987 10990 10992 10993
10747 10746 10746 10747 10747 10747 10748 10750 10751 10751 10751 10751 10751 10750 10750 10749 10748 10747 10746 10746 10747 10749 10751 10755 10760 10765 10770 10777 10788 10798 10806 10812 10818 10827 10836 10839 10843 10849 10852 10854 10857 10857 10858 10867 10875 10881 10888 10893 10898 10904 10909 10911 10915 10919 10923 10927 10929 10931 10934 10937 10940 10942 10945 10948 10951 10955 10959 10962 10966 10969 10970 10971 10974 10976 10976 10978 10978 10978 10979 10981 10982 10983 10984 10985 10988 10990
10741 10741 10741 10741 10741 10741 10743 10744 10744 10745 10745 10745 10745 10745 10745 10744 10742 10741 10741 10740 10741 10742 10743 10746 10750 10755 10761 10768 10777 10788 10796 10801 10808 10816 10823 10827 10832 10836 10839 10844 10847 10848 10853 10861 10866 10872 10880 10886 10891 10897 10902 10905 10908 10912 10916 10919 10922 10924 10926 10928 10931 10933 10936 10941 10945 10949 10953 10956 10960 10963 10964 10966 10968 10970 10972 10973 10973 10975 10976 10977 10978 10980 10981 10982 10983 10986
10735 10735 10735 10735 10735 10736 10737 10738 10738 10739 10740 10740 10740 10739 10739 10738 10737 10736 10735 10735 10735 10736 10738 10740 10743 10748 10753 10758 10766 10775 10781 10786 10795 10805 10812 10816 10819 10821 10825 10831 10835 10839 10846 10854 10859 10865 10872 10878 10884 10890 10895 10898 10901 10904 10908 10911 10914 10916 10918 10920 10922 10925 10929 10933 10938 10942 10946 10950 10954 10957 10958 10960 10962 10964 10966 10967 10969 10970 10972 10972 10973 10974 10976 10978 10979 10980
10730 10730 10730 10730 10730 10730 10731 10732 10732 10733 10734 10734 10734 10734 10734 10733 10732 10731 10730 10729 10729 10730 10732 10734 10737 10741 10745 10750 10757 10765 10770 10775 10785 10795 10802 10805 10806 10807 10810 10817 10822 10828 10837 10845 10851 10858 10864 10869 10875 10881 10886 10890 10893 10896 10900 10902 10905 10908 10910 10913 10916 10919 10923 10927 10931 10935 10939 10943 10947 10950 10952 10954 10956 10957 10960 10962 10964 10965 10966 10967 10968 10969 10971 10973 10974 10974
10725 10725 10724 10724 10724 10725 10725 10726 10727 10727 10728 10728 10729 10729 10729 10729 10728 10726 10724 10724 10723 10724 10726 10728 10731 10735 10738 10742 10748 10756 10761 10767 10775 10784 10790 10793 10794 10795 10798 10804 10811 10819 10827 10834 10842 10849 10855 10860 10865 10871 10877 10881 10884 10888 10892 10895 10898 10901 10903 10906 10909 10913 10917 10921 10925 10929 10932 10936 10940 10943 10946 10948 10950 10952 10954 10956 10958 10960 10962 10963 10965 10966 10967 10968 10968 10969
10720 10719 10719 10719 10719 10719 10720 10720 10721 10721 10721 10722 10723 10724 10724 10724 10723 10720 10719 10718 10718 10718 10720 10723 10725 10730 10733 10734 10740 10747 10753 10759 10766 10774 10780 10782 10782 10783 10785 10792 10800 10809 10817 10824 10831 10838 10844 10849 10855 10860 10866 10871 10875 10879 10883 10887 10890 10893 10896 10900 10903 10907 10912 10916 10919 10922 10926 10929 10932 10936 10939 10942 10944 10946 10948 10950 10952 10953 10955 10958 10960 10961 10962 10962 10963 10963
10715 10714 10713 10713 10713 10714 10714 10714 10715 10716 10716 10717 10718 10719 10719 10719 10718 10715 10714 10713 10713 10713 10715 10717 10720 10725 10728 10728 10732 10739 10746 10751 10756 10763 10769 10771 10770 10771 10775 10782 10790 10799 10807 10814 10820 10827 10833 10839 10845 10850 10856 10862 10867 10871 10875 10879 10882 10885 10889 10893 10896 10900 10905 10909 10913 10916 10919 10923 10926 10929 10932 10935 10938 10940 10942 10943 10944 10945 10947 10950 10953 10955 10955 10956 10956 10957
10710 10709 10708 10708 10708 10708 10708 10709 10709 10710 10711 10711 10712 10713 10713 10713 10712 10710 10709 10709 10708 10708 10709 10711 10714 10718 10721 10722 10725 10731 10738 10742 10745 10749 10755 10757 10758 10762 10769 10775 10782 10790 10798 10804 10810 10817 10823 10829 10835 10841 10847 10853 10858 10862 10867 10871 10875 10878 10882 10885 10889 10893 10898 10902 10905 10909 10912 10916 10919 10922 10925 10928 10931 10934 10935 10936 10937 10938 10940 10943 10945 10947 10947 10948 10948 10950
10705 10704 10703 10702 10702 10703 10703 10703 10704 10705 10705 10706 10707 10708 10708 10708 10707 10705 10705 10705 10704 10703 10704 10705 10707 10710 10713 10715 10718 10724 10729 10731 10734 10738 10743 10747 10749 10755 10763 10770 10776 10783 10790 10796 10802 10808 10814 10819 10825 10832 10838 10844 10850 10854 10859 10863 10867 10871 10874 10877 10881 10885 10889 10894 10898 10901 10905 10908 10912 10915 10918 10920 10924 10927 10929 10929 10930 10930 10932 10935 10937 10938 10939 10940 10940 10942
10699 10698 10697 10697 10697 10698 10698 10698 10699 10699 10700 10700 10701 10702 10702 10703 10701 10700 10700 10700 10699 10698 10698 10698 10700 10703 10706 10709 10712 10716 10720 10723 10726 10730 10734 10738 10742 10748 10755 10762 10769 10775 10781 10788 10794 10799 10805 10810 10816 10823 10829 10835 10841 10846 10850 10854 10858 10862 10865 10869 10872 10876 10881 10885 10889 10893 10897 10901 10904 10907 10909 10912 10917 10920 10921 10922 10922 10922 10925 10929 10931 10930 10931 10933 10934 10936
10693 10693 10692 10692 10692 10693 10693 10693 10694 10694 10694 10695 10695 10696 10696 10697 10697 10696 10695 10694 10693 10692 10691 10692 10693 10696 10699 10702 10705 10708 10712 10716 10719 10723 10727 10731 10735 10740 10746 10753 10759 10765 10772 10779 10785 10790 10796 10801 10807 10813 10820 10827 10833 10838 10841 10846 10850 10853 10857 10860 10864 10868 10872 10876 10881 10885 10889 10892 10896 10899 10901 10904 10908 10912 10914 10915 10914 10914 10917 10921 10923 10922 10922 10925 10928 10930
10688 10688 10687 10687 10688 10688 10688 10688 10689 10689 10689 10690 10690 10690 10691 10692 10692 10692 10691 10689 10687 10686 10685 10685 10687 10689 10691 10693 10697 10700 10704 10708 10712 10716 10720 10724 10729 10733 10738 10743 10749 10756 10763 10769 10776 10781 10786 10792 10798 10805 10812 10819 10825 10829 10833 10837 10841 10845 10848 10851 10855 10859 10863 10867 10872 10876 10879 10883 10886 10890 10893 10895 10898 10902 10905 10906 10906 10906 10909 10912 10913 10913 10914 10917 10920 10922
10683 10682 10682 10683 10683 10683 10683 10683 10684 10684 10684 10684 10684 10685 10685 10686 10687 10687 10685 10684 10682 10680 10679 10678 10679 10681 10683 10685 10688 10692 10696 10700 10703 10708 10713 10718 10722 10726 10730 10734 10740 10747 10754 10760 10766 10772 10777 10784 10791 10797 10804 10810 10815 10819 10823 10828 10832 10835 10839 10842 10846 10849 10853 10858 10862 10866 10870 10873 10876 10879 10882 10885 10888 10891 10894 10896 10897 10898 10900 10902 10904 10905 10907 10909 10912 10914
10677 10677 10677 10678 10678 10678 10678 10678 10679 10679 10679 10679 10679 10679 10680 10680 10681 10680 10679 10678 10676 10675 10673 10672 10672 10673 10675 10677 10680 10684 10688 10691 10695 10699 10705 10710 10715 10719 10722 10726 10731 10738 10745 10751 10756 10762 10768 10775 10782 10788 10794 10798 10803 10808 10812 10817 10821 10825 10829 10833 10836 10840 10844 10848 10852 10856 10860 10863 10866 10869 10872 10875 10878 10880 10883 10885 10887 10889 10891 10893 10895 10896 10899 10901 10904 10906
10672 10673 10673 10673 10673 10673 10673 10673 10674 10674 10674 10674 10674 10674 10674 10674 10674 10674 10673 10671 10670 10668 10667 10666 10665 10666 10667 10670 10673 10677 10680 10683 10687 10691 10696 10702 10707 10710 10713 10717 10722 10729 10735 10741 10746 10752 10758 10765 10772 10779 10784 10788 10793 10797 10802 10806 10810 10815 10819 10823 10826 10830 10834 10838 10842 10846 10850 10853 10856 10859 10861 10864 10867 10870 10872 10875 10878 10880 10882 10884 10885 10887 10890 10893 10895 10897
10666 10667 10668 10668 10668 10668 10668 10668 10669 10669 10669 10669 10669 10669 10669 10669 10669 10668 10667 10665 10664 10662 10660 10659 10659 10659 10660 10663 10666 10669 10672 10675 10679 10683 10688 10694 10698 10702 10705 10708 10713 10719 10725 10731 10737 10742 10749 10756 10763 10769 10775 10779 10783 10787 10792 10796 10800 10804 10809 10813 10817 10820 10824 10828 10832 10836 10840 10843 10846 10849 10852 10854 10857 10859 10862 10865 10868 10870 10873 10875 10876 10878 10880 10883 10885 10888
10661 10661 10662 10663 10663 10663 10663 10663 10664 10664 10664 10664 10664 10664 10664 10664 10663 10662 10661 10660 10658 10656 10654 10653 10652 10653 10654 10656 10658 10661 10664 10668 10671 10675 10680 10685 10690 10694 10697 10700 10705 10710 10716 10722 10727 10733 10740 10747 10753 10759 10764 10769 10774 10778 10782 10786 10790 10794 10798 10803 10807 10811 10814 10818 10822 10825 10829 10833 10836 10839 10842 10844 10847 10849 10852 10854 10857 10860 10862 10865 10866 10868 10870 10872 10875 10877
10655 10656 10657 10658 10658 10658 10658 10659 10659 10659 10659 10659 10660 10660 10659 10658 10657 10656 10655 10654 10652 10650 10648 10647 10647 10647 10648 10649 10652 10654 10657 10660 10664 10668 10672 10677 10682 10685 10688 10692 10696 10702 10707 10712 10718 10725 10732 10737 10743 10748 10754 10759 10764 10768 10771 10775 10779 10783 10787 10792 10797 10801 10805 10808 10811 10815 10818 10822 10825 10828 10831 10834 10836 10838 10840 10843 10846 10848 10851 10854 10856 10858 10860 10862 10864 10866
10650 10651 10652 10652 10653 10654 10654 10655 10655 10655 10655 10655 10655 10655 10655 10654 10652 10651 10650 10649 10647 10645 10643 10642 10642 10642 10643 10644 10646 10648 10651 10654 10657 10660 10664 10669 10673 10677 10680 10684 10688 10693 10698 10703 10709 10716 10722 10728 10733 10738 10744 10749 10753 10758 10761 10765 10768 10772 10776 10781 10785 10790 10794 10797 10801 10804 10807 10810 10814 10817 10820 10822 10825 10827 10829 10832 10834 10837 10839 10842 10844 10847 10850 10852 10854 10856